******************************************************************************* JPL/HORIZONS 12P/Pons-Brooks 2025-Dec-12 17:52:35 Rec #:90000223 (+COV) Soln.date: 2022-May-09_10:46:48 # obs: 430 (1812-1954) IAU76/J2000 helio. ecliptic osc. elements (au, days, deg., period=Julian yrs): EPOCH= 2414270.5 ! 1897-Dec-12.0000000 (TDB) RMSW= n.a. EC= .9546793966627336 QR= .7745662359217889 TP= 2409204.3283676389 OM= 255.7625218419923 W= 199.1315081578012 IN= 73.9093741705598 A= 17.09081916137854 MA= 70.670742511341 ADIST= 33.4070720868353 PER= 70.656565071711 N= .013949536 ANGMOM= .021166473 DAN= 15.4416 DDN= .79604 L= 81.25434970000001 B= -18.3546696 MOID= .18651199 TP= 1884-Jan-28.8283676389 Comet physical (GM= km^3/s^2; RAD= km): GM= n.a. RAD= n.a. M1= 5. M2= 11. k1= 15. k2= 10. PHCOF= n.a. Comet non-gravitational force model (AMRAT=m^2/kg;A1-A3=au/d^2;DT=days;R0=au): AMRAT= 0. DT= 0. A1= -9.793811291456E-10 A2= -2.709762193263E-10 A3= 0. Standard model: ALN= .1112620426 NK= 4.6142 NM= 2.15 NN= 5.093 R0= 2.808 COMET comments 1: soln ref.= JPL#J542/1, data arc: 1812-08-18 to 1954-09-03 2: k1=15.0, k2=10.0; ******************************************************************************* ******************************************************************************* Ephemeris / WWW_USER Fri Dec 12 17:52:35 2025 Pasadena, USA / Horizons ******************************************************************************* Target body name: 12P/Pons-Brooks {source: JPL#J542/1} Center body name: Earth (399) {source: DE441} Center-site name: GEOCENTRIC ******************************************************************************* Start time : A.D. 2024-Apr-21 00:00:00.0000 UT Stop time : A.D. 2024-Apr-21 04:00:00.0000 UT Step-size : 20 minutes ******************************************************************************* Target pole/equ : undefined Target radii : undefined Center geodetic : 0.0, 0.0, -6378.137 {E-lon(deg),Lat(deg),Alt(km)} Center cylindric: 0.0, 0.0, 0.0 {E-lon(deg),Dxy(km),Dz(km)} Center pole/equ : ITRF93 {East-longitude positive} Center radii : 6378.137, 6378.137, 6356.752 km {Equator_a, b, pole_c} Target primary : Sun Vis. interferer : MOON (R_eq= 1737.400) km {source: DE441} Rel. light bend : Sun {source: DE441} Rel. lght bnd GM: 1.3271E+11 km^3/s^2 Small-body perts: Yes {source: SB441-N16} Atmos refraction: NO (AIRLESS) RA format : HMS Time format : CAL Calendar mode : Mixed Julian/Gregorian EOP file : eop.251212.p260310 EOP coverage : DATA-BASED 1962-JAN-20 TO 2025-DEC-12. PREDICTS-> 2026-MAR-09 Units conversion: 1 au= 149597870.700 km, c= 299792.458 km/s, 1 day= 86400.0 s Table cut-offs 1: Elevation (-90.0deg=NO ),Airmass (>38.000=NO), Daylight (NO ) Table cut-offs 2: Solar elongation ( 0.0,180.0=NO ),Local Hour Angle( 0.0=NO ) Table cut-offs 3: RA/DEC angular rate ( 0.0=NO ) ******************************************************************************* Initial IAU76/J2000 heliocentric ecliptic osculating elements (au, days, deg.): EPOCH= 2414270.5 ! 1897-Dec-12.0000000 (TDB) RMSW= n.a. EC= .9546793966627336 QR= .7745662359217889 TP= 2409204.3283676389 OM= 255.7625218419923 W= 199.1315081578012 IN= 73.9093741705598 Equivalent ICRF heliocentric cartesian coordinates (au, au/d): X=-5.030385393040465E+00 Y=-2.359549665228674E+01 Z=-6.232037106320721E+00 VX=-2.251229415231440E-04 VY=-2.521444768552887E-03 VZ= 1.694756805598230E-04 Comet physical (GM= km^3/s^2; RAD= km): GM= n.a. RAD= n.a. M1= 5. M2= 11. k1= 15. k2= 10. PHCOF= n.a. Comet non-gravitational force model (AMRAT=m^2/kg;A1-A3=au/d^2;DT=days;R0=au): AMRAT= 0. DT= 0. A1= -9.793811291456E-10 A2= -2.709762193263E-10 A3= 0. Standard model: ALN= .1112620426 NK= 4.6142 NM= 2.15 NN= 5.093 R0= 2.808 ******************************************************************************* Date__(UT)__HR:MN r rdot ************************************************** $$SOE 2024-Apr-21 00:00 0.780780464571 -0.0011322 2024-Apr-21 00:20 0.780780500183 0.0100111 2024-Apr-21 00:40 0.780780625180 0.0211544 2024-Apr-21 01:00 0.780780839564 0.0322977 2024-Apr-21 01:20 0.780781143334 0.0434409 2024-Apr-21 01:40 0.780781536491 0.0545842 2024-Apr-21 02:00 0.780782019033 0.0657274 2024-Apr-21 02:20 0.780782590960 0.0768706 2024-Apr-21 02:40 0.780783252273 0.0880137 2024-Apr-21 03:00 0.780784002971 0.0991568 2024-Apr-21 03:20 0.780784843054 0.1102999 2024-Apr-21 03:40 0.780785772521 0.1214429 2024-Apr-21 04:00 0.780786791371 0.1325859 $$EOE ******************************************************************************* Column meaning: TIME Times PRIOR to 1962 are UT1, a mean-solar time closely related to the prior but now-deprecated GMT. Times AFTER 1962 are in UTC, the current civil or "wall-clock" time-scale. UTC is kept within 0.9 seconds of UT1 using integer leap-seconds for 1972 and later years. Conversion from the internal Barycentric Dynamical Time (TDB) of solar system dynamics to the non-uniform civil UT time-scale requested for output has not been determined for UTC times after the next July or January 1st. Therefore, the last known leap-second is used as a constant over future intervals. Time tags refer to the UT time-scale conversion from TDB on Earth regardless of observer location within the solar system, although clock rates may differ due to the local gravity field and no analog to "UT" may be defined for that location. Any 'b' symbol in the 1st-column denotes a B.C. date. First-column blank (" ") denotes an A.D. date. CALENDAR SYSTEM Mixed calendar mode was active such that calendar dates after AD 1582-Oct-15 (if any) are in the modern Gregorian system. Dates prior to 1582-Oct-5 (if any) are in the Julian calendar system, which is automatically extended for dates prior to its adoption on 45-Jan-1 BC. The Julian calendar is useful for matching historical dates. The Gregorian calendar more accurately corresponds to the Earth's orbital motion and seasons. A "Gregorian-only" calendar mode is available if such physical events are the primary interest. NOTE: "n.a." in output means quantity "not available" at the print-time. 'r rdot' = The Sun's apparent range ("r", light-time aberrated) and range-rate ("rdot") relative to the target center, as seen by the observer. A positive "rdot" means the target center was moving away from the Sun, negative means moving toward the Sun. Units: AU and KM/S Computations by ... Solar System Dynamics Group, Horizons On-Line Ephemeris System 4800 Oak Grove Drive, Jet Propulsion Laboratory Pasadena, CA 91109 USA General site: https://ssd.jpl.nasa.gov/ Mailing list: https://ssd.jpl.nasa.gov/email_list.html System news : https://ssd.jpl.nasa.gov/horizons/news.html User Guide : https://ssd.jpl.nasa.gov/horizons/manual.html Connect : browser https://ssd.jpl.nasa.gov/horizons/app.html#/x API https://ssd-api.jpl.nasa.gov/doc/horizons.html command-line telnet ssd.jpl.nasa.gov 6775 e-mail/batch https://ssd.jpl.nasa.gov/ftp/ssd/horizons_batch.txt scripts https://ssd.jpl.nasa.gov/ftp/ssd/SCRIPTS Author : Jon.D.Giorgini@jpl.nasa.gov ******************************************************************************* !$$SOF COMMAND = '90000223' QUANTITIES = '19' START_TIME = '2024-Apr-21' STEP_SIZE = '20 min' STOP_TIME = '2024-Apr-21 04:00'